EW5586 Weather Reports


time (UTC)temp
C
wind
direction
speed
KPH
gust
KPH
rain 1hr
cm
rain 24hr
cm
rain mn
cm
humidity
%
barometer
mb
20260504050336 8 209 9.7 14.5 0.00 0.00 0.00 85 1006.9
20260504045830 8 196 8.0 14.5 0.00 0.00 0.00 83 1006.9
20260504045324 8 211 6.4 12.9 0.00 0.00 0.00 81 1007.0
20260504044312 8 240 6.4 16.1 0.00 0.00 0.00 80 1007.1
20260504042755 8 209 8.0 17.7 0.00 0.00 0.00 79 1007.0
20260504042248 8 229 8.0 17.7 0.00 0.00 0.00 79 1007.0
20260504041742 8 209 8.0 17.7 0.00 0.00 0.00 79 1007.0
20260504041236 8 225 8.0 12.9 0.00 0.00 0.00 78 1007.0
20260504040730 8 0 8.0 14.5 0.00 0.00 0.00 78 1007.2
20260504040224 8 234 9.7 20.9 0.00 0.00 0.00 78 1007.2
20260504035718 8 217 11.3 25.7 0.00 0.00 0.00 77 1007.1
20260504035212 8 215 9.7 25.7 0.00 0.00 0.00 77 1007.0
20260504034706 8 211 6.4 17.7 0.00 0.00 0.00 77 1007.0
20260504034201 8 217 9.7 22.5 0.00 0.00 0.00 76 1007.0
20260504033148 8 216 8.0 17.7 0.00 0.00 0.00 76 1007.1
20260504032642 8 225 14.5 24.1 0.00 0.00 0.00 77 1007.0
20260504031630 8 180 14.5 22.5 0.00 0.00 0.00 78 1007.1
20260504031124 8 237 12.9 20.9 0.00 0.00 0.00 75 1007.1
20260504030618 8 188 12.9 22.5 0.00 0.00 0.00 76 1007.1
20260504025606 8 211 14.5 24.1 0.00 0.00 0.00 80 1007.2
20260504025100 8 221 12.9 20.9 0.00 0.00 0.00 80 1007.3
20260504024555 8 234 12.9 19.3 0.00 0.00 0.00 80 1007.3
20260504024048 8 217 12.9 19.3 0.00 0.00 0.00 79 1007.4
20260504023544 8 228 12.9 19.3 0.00 0.00 0.00 78 1007.4
20260504023043 8 217 12.9 19.3 0.00 0.00 0.00 76 1007.5
20260504022024 8 209 12.9 20.9 0.00 0.00 0.00 77 1007.6
20260504021518 8 205 11.3 20.9 0.00 0.00 0.00 78 1007.5
20260504021012 7 213 12.9 17.7 0.00 0.00 0.00 80 1007.6
20260504020506 8 220 12.9 17.7 0.00 0.00 0.00 81 1007.6
20260504020000 8 208 12.9 17.7 0.00 0.00 0.00 80 1007.6
20260504014948 8 0 16.1 22.5 0.00 0.00 0.00 78 1007.6
20260504014444 8 216 16.1 24.1 0.00 0.00 0.00 77 1007.6
20260504013945 8 218 16.1 24.1 0.00 0.00 0.00 76 1007.6
20260504013444 8 223 16.1 24.1 0.00 0.00 0.00 75 1007.6
20260504012945 8 0 16.1 24.1 0.00 0.00 0.00 73 1007.7
20260504012444 8 221 14.5 22.5 0.00 0.00 0.00 72 1007.8
20260504011944 8 226 12.9 20.9 0.00 0.00 0.00 70 1007.8
20260504010944 9 216 12.9 20.9 0.00 0.00 0.00 69 1007.7
20260504010444 9 220 9.7 19.3 0.00 0.00 0.00 66 1007.6
20260504005944 9 202 9.7 17.7 0.00 0.00 0.00 60 1007.6
20260504005444 9 216 11.3 19.3 0.00 0.00 0.00 62 1007.6
20260504003944 8 0 17.7 27.4 0.00 0.00 0.00 68 1007.5
20260504003445 9 213 17.7 25.7 0.00 0.00 0.00 68 1007.6
20260504002444 10 194 17.7 25.7 0.00 0.00 0.00 57 1007.5
20260504001938 10 211 14.5 25.7 0.00 0.00 0.00 56 1007.5
20260504001433 10 236 14.5 27.4 0.00 0.00 0.00 51 1007.4
20260504000933 10 216 14.5 27.4 0.00 0.00 0.00 49 1007.4
20260503235932 10 219 14.5 32.2 0.00 0.00 0.00 50 1007.4
20260503234933 10 231 16.1 27.4 0.00 0.00 0.00 50 1007.4
20260503234434 10 216 14.5 27.4 0.00 0.00 0.00 49 1007.3
20260503233932 10 211 16.1 30.6 0.00 0.00 0.00 49 1007.3
20260503233432 11 198 16.1 30.6 0.00 0.00 0.00 47 1007.4
20260503232932 11 219 14.5 30.6 0.00 0.00 0.00 45 1007.4
20260503232432 11 0 16.1 30.6 0.00 0.00 0.00 45 1007.4
20260503231932 11 228 12.9 30.6 0.00 0.00 0.00 45 1007.3
20260503231432 11 238 12.9 30.6 0.00 0.00 0.00 45 1007.4
20260503230929 11 235 17.7 35.4 0.00 0.00 0.00 48 1007.4
20260503230428 11 205 16.1 35.4 0.00 0.00 0.00 45 1007.3
20260503225928 11 0 14.5 29.0 0.00 0.00 0.00 46 1007.4
20260503225428 11 239 14.5 32.2 0.00 0.00 0.00 46 1007.3
20260503224430 10 230 19.3 32.2 0.00 0.00 0.00 55 1007.3
20260503222931 9 221 20.9 29.0 0.00 0.00 0.00 65 1007.4
20260503222424 9 225 20.9 30.6 0.00 0.00 0.00 67 1007.5
20260503221924 9 0 19.3 30.6 0.00 0.00 0.00 69 1007.6
20260503220924 9 199 20.9 27.4 0.00 0.00 0.00 67 1007.6
20260503220424 9 203 22.5 29.0 0.00 0.00 0.00 65 1007.6
20260503215924 9 204 24.1 33.8 0.00 0.00 0.00 66 1007.7
20260503215424 9 207 24.1 33.8 0.00 0.00 0.00 65 1007.7
20260503214924 9 202 22.5 32.2 0.00 0.00 0.00 67 1007.7
20260503214426 9 190 22.5 32.2 0.00 0.00 0.00 68 1007.7
20260503213922 9 0 22.5 32.2 0.00 0.00 0.00 67 1007.7
20260503212924 9 194 24.1 32.2 0.00 0.00 0.00 68 1007.8
20260503212422 9 192 24.1 30.6 0.00 0.00 0.00 66 1007.8
20260503211922 9 211 25.7 32.2 0.00 0.00 0.00 67 1007.8
20260503211423 9 217 27.4 33.8 0.00 0.00 0.00 65 1007.8
20260503210923 9 0 24.1 33.8 0.00 0.00 0.00 65 1007.8
20260503210422 9 219 22.5 32.2 0.00 0.00 0.00 66 1007.9
20260503205923 9 196 22.5 29.0 0.00 0.00 0.00 66 1008.0
20260503204921 9 222 24.1 33.8 0.00 0.00 0.00 66 1008.1
20260503204415 9 198 22.5 33.8 0.00 0.00 0.00 65 1008.2
20260503203402 9 0 22.5 32.2 0.00 0.00 0.00 65 1008.2
20260503202856 9 204 24.1 35.4 0.00 0.00 0.00 64 1008.3
20260503202354 9 191 24.1 35.4 0.00 0.00 0.00 63 1008.3
20260503201852 9 176 24.1 32.2 0.00 0.00 0.00 67 1008.4
20260503201351 9 197 24.1 32.2 0.00 0.00 0.00 64 1008.4
20260503200853 9 0 24.1 30.6 0.00 0.00 0.00 63 1008.4
20260503200351 9 181 27.4 37.0 0.00 0.00 0.00 63 1008.4
20260503195850 9 209 29.0 38.6 0.00 0.00 0.00 61 1008.5
20260503195351 9 234 27.4 38.6 0.00 0.00 0.00 60 1008.5
20260503194850 9 187 25.7 35.4 0.00 0.00 0.00 60 1008.6
20260503193849 9 196 27.4 38.6 0.00 0.00 0.00 61 1008.9
20260503193350 9 178 29.0 38.6 0.00 0.00 0.00 61 1008.9
20260503192850 9 202 30.6 40.2 0.00 0.00 0.00 59 1008.9
20260503191849 9 197 30.6 40.2 0.00 0.00 0.00 61 1009.1
20260503191342 9 175 29.0 38.6 0.00 0.00 0.00 61 1009.1
20260503190837 9 203 29.0 40.2 0.00 0.00 0.00 58 1009.0
20260503190329 9 205 30.6 40.2 0.00 0.00 0.00 61 1009.1
20260503185823 8 0 29.0 37.0 0.00 0.00 0.00 61 1009.1
20260503185318 9 209 25.7 37.0 0.00 0.00 0.00 57 1009.1
20260503184811 9 0 24.1 37.0 0.00 0.00 0.00 59 1009.1
20260503184306 9 200 20.9 32.2 0.00 0.00 0.00 57 1009.1
20260503183759 9 0 19.3 29.0 0.00 0.00 0.00 62 1009.1
20260503183253 9 0 19.3 35.4 0.00 0.00 0.00 64 1009.2
20260503182747 8 184 22.5 35.4 0.00 0.00 0.00 65 1009.3
20260503182241 8 208 22.5 32.2 0.00 0.00 0.00 64 1009.3
20260503181735 8 219 24.1 33.8 0.00 0.00 0.00 63 1009.4
20260503181229 9 190 25.7 37.0 0.00 0.00 0.00 56 1009.3
20260503180723 9 213 25.7 37.0 0.00 0.00 0.00 55 1009.3
20260503180224 9 220 20.9 33.8 0.00 0.00 0.00 62 1009.3
20260503175724 9 196 19.3 30.6 0.00 0.00 0.00 62 1009.4
20260503175227 10 173 19.3 32.2 0.00 0.00 0.00 60 1009.4
20260503174224 9 192 22.5 33.8 0.00 0.00 0.00 62 1009.7
20260503173721 9 0 22.5 33.8 0.00 0.00 0.00 55 1009.5
20260503173222 9 208 24.1 38.6 0.00 0.00 0.00 56 1009.7
20260503172720 8 199 24.1 38.6 0.00 0.00 0.00 56 1009.7
20260503172221 8 213 24.1 40.2 0.00 0.00 0.00 60 1009.7
20260503171720 9 193 20.9 40.2 0.00 0.00 0.00 60 1009.7
20260503171220 9 205 20.9 33.8 0.00 0.00 0.00 63 1009.7
20260503170719 9 233 22.5 33.8 0.00 0.00 0.00 64 1009.8
20260503170218 9 169 22.5 33.8 0.00 0.00 0.00 61 1009.9
20260503160144 11 217 8.0 19.3 0.00 0.00 0.00 42 1010.7
20260503150546 -17 0.0 0.0 0.00 0.00 0.00 1011.4
20260503131151 -17 0.0 0.0 0.00 0.00 0.00 1012.1
20260503130644 -17 0.0 0.0 0.00 0.00 0.00 1012.1
20260503110129 -17 0.0 0.0 0.00 0.00 0.00 1011.7
20260503100225 -17 0.0 0.0 0.00 0.00 0.00 1011.5
20260503081315 3 279 0.0 0.0 0.00 0.00 0.00 85 1011.9
20260503080815 3 279 0.0 0.0 0.00 0.00 0.00 85 1011.9
20260503080315 3 279 0.0 0.0 0.00 0.00 0.00 85 1011.9
20260503072312 3 279 0.0 0.0 0.00 0.00 0.00 85 1011.8
20260503071811 3 279 0.0 0.0 0.00 0.00 0.00 85 1011.9
20260503071311 3 279 0.0 0.0 0.00 0.00 0.00 85 1011.8
20260503070813 4 279 0.0 0.0 0.00 0.00 0.00 85 1011.8
20260503070308 4 279 0.0 0.0 0.00 0.00 0.00 85 1011.8
20260503060256 4 279 0.0 0.0 0.00 0.00 0.00 85 1012.0